TimePST,TemperatureF,Dew PointF,Humidity,Sea Level PressureIn,VisibilityMPH,Wind Direction,Wind SpeedMPH,Gust SpeedMPH,PrecipitationIn,Events,Conditions,WindDirDegrees,DateUTC
12:28 AM,44.6,42.8,93,29.59,5.0,Calm,Calm,-,0.04,Rain,Light Rain,0,2013-03-06 08:28:00
12:53 AM,43.0,42.1,97,29.60,5.0,Calm,Calm,-,0.06,Rain,Light Rain,0,2013-03-06 08:53:00
1:00 AM,42.8,42.8,100,29.59,5.0,Calm,Calm,-,0.01,Rain,Light Rain,0,2013-03-06 09:00:00
1:16 AM,42.8,42.8,100,29.58,6.0,Calm,Calm,-,0.03,Rain,Light Rain,0,2013-03-06 09:16:00
1:26 AM,42.8,42.8,100,29.58,8.0,Calm,Calm,-,0.03,Rain,Light Rain,0,2013-03-06 09:26:00
1:53 AM,43.0,42.1,97,29.58,10.0,Calm,Calm,-,0.04,Rain,Light Rain,0,2013-03-06 09:53:00
2:42 AM,42.8,42.8,100,29.56,8.0,Calm,Calm,-,0.01,Rain,Light Rain,0,2013-03-06 10:42:00
2:53 AM,43.0,42.1,97,29.57,8.0,Calm,Calm,-,0.01,Rain,Light Rain,0,2013-03-06 10:53:00
3:30 AM,42.8,42.8,100,29.56,6.0,Calm,Calm,-,0.04,Rain,Light Rain,0,2013-03-06 11:30:00
3:40 AM,42.8,42.8,100,29.56,7.0,Calm,Calm,-,0.05,Rain,Light Rain,0,2013-03-06 11:40:00
3:53 AM,43.0,42.1,97,29.57,5.0,Calm,Calm,-,0.06,Rain,Light Rain,0,2013-03-06 11:53:00
4:12 AM,42.8,42.8,100,29.56,9.0,Calm,Calm,-,0.02,Rain,Light Rain,0,2013-03-06 12:12:00
4:53 AM,43.0,43.0,100,29.58,7.0,Calm,Calm,-,0.04,Rain,Light Rain,0,2013-03-06 12:53:00
5:13 AM,42.8,42.8,100,29.58,6.0,Calm,Calm,-,0.01,Rain,Light Rain,0,2013-03-06 13:13:00
5:53 AM,43.0,42.1,97,29.59,7.0,Calm,Calm,-,0.04,Rain,Light Rain,0,2013-03-06 13:53:00
6:13 AM,42.8,42.8,100,29.59,6.0,Calm,Calm,-,0.03,Rain,Light Rain,0,2013-03-06 14:13:00
6:53 AM,42.1,39.0,89,29.61,8.0,Variable,5.8,-,0.07,Rain,Light Rain,0,2013-03-06 14:53:00
7:07 AM,42.8,39.2,87,29.61,9.0,WSW,3.5,-,0.01,Rain,Light Rain,240,2013-03-06 15:07:00
7:53 AM,41.0,39.0,93,29.65,7.0,Calm,Calm,-,0.04,Rain,Light Rain,0,2013-03-06 15:53:00
8:18 AM,41.0,37.4,87,29.66,10.0,Variable,3.5,-,0.02,Rain,Light Rain,0,2013-03-06 16:18:00
8:53 AM,42.1,39.0,89,29.70,10.0,Calm,Calm,-,0.03,Rain,Light Rain,0,2013-03-06 16:53:00
9:53 AM,43.0,39.0,86,29.73,10.0,SSE,3.5,-,0.00,,Overcast,160,2013-03-06 17:53:00
10:53 AM,46.0,41.0,83,29.77,10.0,Variable,3.5,-,N/A,,Mostly Cloudy,0,2013-03-06 18:53:00
11:00 AM,46.4,41.0,81,29.77,10.0,ESE,3.5,-,N/A,,Overcast,110,2013-03-06 19:00:00
11:26 AM,48.2,41.0,76,29.79,10.0,South,8.1,-,N/A,,Overcast,170,2013-03-06 19:26:00
11:53 AM,48.9,39.9,71,29.81,10.0,South,6.9,-,N/A,,Mostly Cloudy,170,2013-03-06 19:53:00
12:53 PM,51.1,39.0,63,29.82,10.0,SSE,9.2,-,0.00,,Overcast,160,2013-03-06 20:53:00
2:53 PM,51.1,36.0,56,29.86,10.0,South,6.9,17.3,N/A,,Scattered Clouds,190,2013-03-06 22:53:00
3:53 PM,48.9,35.1,59,29.89,10.0,South,9.2,-,0.00,,Overcast,180,2013-03-06 23:53:00
4:53 PM,48.9,35.1,59,29.90,10.0,SSW,8.1,-,N/A,,Mostly Cloudy,200,2013-03-07 00:53:00
5:53 PM,48.0,34.0,58,29.92,10.0,South,6.9,-,N/A,,Overcast,180,2013-03-07 01:53:00
6:53 PM,46.0,36.0,68,29.93,10.0,South,5.8,-,0.00,Rain,Light Rain,170,2013-03-07 02:53:00
7:53 PM,43.0,35.1,74,29.95,10.0,Calm,Calm,-,0.00,,Clear,0,2013-03-07 03:53:00
8:53 PM,42.1,35.1,76,29.97,10.0,Calm,Calm,-,N/A,,Partly Cloudy,0,2013-03-07 04:53:00
9:53 PM,42.1,36.0,79,29.99,10.0,SSE,3.5,-,0.00,Rain,Light Rain,160,2013-03-07 05:53:00
10:53 PM,43.0,36.0,76,30.00,10.0,Calm,Calm,-,0.00,,Mostly Cloudy,0,2013-03-07 06:53:00
11:53 PM,42.1,37.0,82,30.00,10.0,Calm,Calm,-,N/A,,Mostly Cloudy,0,2013-03-07 07:53:00